View from above orbital plane
|
View from above satellite
|
Ground track
|
The orbit data is extracted from the following two-line orbital elements,
1 10515U 77117B 21059.19289507 .00000102 00000-0 51887-4 0 9999
2 10515 81.2465 44.9992 0029350 25.0879 335.1710 14.08735265220158
Epoch (UTC): | 28 February 2021 04:37:46 |
Eccentricity: | 0.0029350 |
inclination: | 81.2465° |
perigee height: | 842 km |
apogee height: | 885 km |
right ascension of ascending node: | 44.9992° |
argument of perigee: | 25.0879° |
revolutions per day: | 14.08735265 |
mean anomaly at epoch: | 335.1710° |
orbit number at epoch: | 22015 |
The dashed part of the orbit path shows where the satellite is in the earth's shadow,
|
|